www.pogodaiklimat.ru

Погода и климат >> Архив погоды >> Россия >> Краснодарский край >> Должанка


ПОГОДА в Должанке

  • Прогноз погоды в Должанке
  • Монитор погоды в Должанке

АРХИВ ПОГОДЫ в Должанке

Время (UTC), дата Ветер
(напр.,м/с)
 
Видим.   Явления Облачность Т
(С)
Тd
(С)
f
(%)
Тe
(С)
Тes
(С)
Комфортность P
(гПа)
Po
(гПа)
Тmin
(С)
Tmax
(С)
R
(мм)
R24
(мм)
S
(см)
18 12.06 СВ 2 10 км 8/8 600 м
[Cu Sc]
+25.2 +20.6 76 +31 +31 очень
душно
1008.9 1008.6
21 12.06 С 1 10 км 8/0
[Ac trans]
+23.9 +20.3 80 +30 +30 очень
душно
1009.2 1008.9
00 13.06 В 2 10 км 10/0
[Ac trans]
+23.9 +20.3 80 +30 +30 очень
душно
1009.4 1009.0
03 13.06 СВ 3 10 км 8/0
[Ac trans]
+25.0 +20.6 77 +31 +32 очень
душно
1009.4 1009.1 +23.1
06 13.06 В 5 10 км 10/0
[Cs]
+26.1 +17.3 58 +30 +34 душно 1010.4 1010.1
09 13.06 СВ 5 10 км 8/0
[Ci fib]
+28.8 +18.6 54 +34 +42 очень
душно
1011.3 1011.0
12 13.06 СВ 5 10 км 8/0
[Ci fib]
+30.9 +17.2 44 +35 +41 очень
душно
1011.4 1011.0
15 13.06 СВ 5 10 км 8/0
[Ci fib]
+29.1 +16.8 47 +33 +34 очень
душно
1012.0 1011.7 +31.6
18 13.06 С 2 10 км 9/9 300 м
[Cb calv]
+26.1 +15.1 51 +29 +29 жарко 1012.2 1011.8
21 13.06 С 4 10 км 8/3 600 м
[Cu med, cong Ac As]
+25.1 +18.0 65 +29 +29 душно 1013.2 1012.8
00 14.06 С 6-10
{10}
10 км 5/3 600 м
[Cu hum Ac trans]
+25.2 +17.3 62 +29 +29 душно 1013.5 1013.1
03 14.06 СВ 8-13
{15}
10 км 8/3
[Sc Ac trans]
+23.7 +15.6 60 +27 +27 жарко 1014.5 1014.1 +23.7
06 14.06 СВ 8-14
{15}
10 км 3/0
[Ac trans]
+24.7 +13.2 49 +27 +28 жарко 1016.3 1015.9 +22.9
09 14.06 СВ 9-13
{14}
10 км ясно +25.9 +14.5 49 +28 +30 жарко 1016.7 1016.3
12 14.06 СВ 9-14
{15}
10 км 3/0
[Cs]
+27.0 +14.3 46 +29 +31 жарко 1016.2 1015.9
15 14.06 СВ 6
{14}
10 км 6/0
[Ci fib]
+27.2 +13.1 42 +29 +30 жарко 1015.6 1015.3 +28.0
18 14.06 В 5
{11}
10 км 4/0
[Ci fib]
+25.0 +13.2 48 +27 +27 жарко 1015.9 1015.6
21 14.06 СВ 4 10 км 4/0
[Ci fib]
+23.8 +10.4 43 +25 +25 комфорт 1015.4 1015.0
00 15.06 СВ 5 10 км ясно +22.3 +14.6 62 +26 +26 жарко 1015.1 1014.7
03 15.06 СВ 5
{10}
10 км ясно +23.1 +10.3 44 +25 +25 комфорт 1014.4 1014.1 +22.2
06 15.06 СВ 7-11
{11}
10 км ясно +25.5 +11.9 43 +27 +30 жарко 1014.5 1014.2
09 15.06 СВ 7-10
{11}
10 км ясно +27.7 +11.8 37 +29 +34 жарко 1013.9 1013.6
12 15.06 СВ 6
{10}
10 км ясно +29.3 +10.9 32 +30 +35 жарко 1012.9 1012.5
15 15.06 С 4
{10}
10 км ясно +28.7 +10.1 31 +29 +31 жарко 1011.4 1011.0 +29.4
18 15.06 СВ 3 10 км ясно +22.3 +15.8 67 +26 +26 жарко 1011.7 1011.4
21 15.06 СВ 2 10 км ясно +17.3 +14.6 84 +18 +18 1011.1 1010.8
00 16.06 СВ 2 10 км ясно +19.5 +17.9 90 +22 +22 комфорт 1010.5 1010.1
03 16.06 СВ 2 10 км ясно +21.7 +18.8 84 +27 +28 душно 1010.2 1009.9 +16.8
06 16.06 СВ 3 10 км ясно +27.4 +16.8 52 +31 +39 душно 1010.6 1010.2
09 16.06 СВ 3 10 км ясно +31.5 +8.0 23 +30 +46 жарко 1010.4 1010.1
12 16.06 С 3 10 км ясно +33.4 +7.2 20 +32 +43 жарко 1009.7 1009.4
15 16.06 З 2 10 км ясно +31.6 +10.9 28 +32 +35 жарко 1008.3 1007.9 +33.4
18 16.06 З 3 10 км ясно +27.0 +19.7 64 +33 +33 очень
душно
1008.6 1008.2
21 16.06 С 8-12
{12}
10 км ясно +25.6 +18.5 65 +30 +30 душно 1008.7 1008.4
00 17.06 СВ 7-10
{12}
10 км ясно +23.1 +18.6 76 +29 +29 очень
душно
1009.7 1009.3
03 17.06 СВ 7-11
{12}
10 км 3/3 600 м
[Cu hum]
+21.6 +17.8 79 +26 +26 душно 1011.0 1010.7 +21.0
06 17.06 СВ 7-11
{12}
10 км 4/4 600 м
[Cu hum]
+23.8 +17.7 69 +28 +30 душно 1012.5 1012.2
09 17.06 СВ 8-11
{12}
10 км ясно +26.6 +15.0 49 +29 +33 жарко 1012.8 1012.5
12 17.06 СВ 7-10
{11}
10 км ясно +28.2 +15.1 45 +31 +35 душно 1012.0 1011.6
15 17.06 СВ 5
{10}
10 км ясно +28.3 +16.2 48 +32 +33 душно 1011.7 1011.4 +28.7
18 17.06 С 4 10 км ясно +25.2 +17.8 64 +30 +30 душно 1012.2 1011.9
21 17.06 С 5 10 км ясно +24.6 +16.4 60 +28 +28 душно 1013.1 1012.7
00 18.06 С 4 10 км ясно +23.4 +16.3 64 +28 +28 душно 1013.2 1012.8
03 18.06 С 4 10 км ясно +23.8 +16.6 64 +27 +28 жарко 1013.8 1013.5 +22.8
06 18.06 СВ 6 10 км ясно +26.4 +15.9 52 +30 +34 душно 1014.0 1013.7
09 18.06 СВ 6 10 км ясно +28.6 +12.9 38 +30 +37 жарко 1013.8 1013.5
12 18.06 СВ 4 10 км ясно +30.3 +10.9 30 +30 +40 жарко 1013.1 1012.8
15 18.06 С 3 10 км ясно +28.9 +14.7 42 +31 +34 жарко 1012.1 1011.8 +30.5
18 18.06 С 2 10 км ясно +23.6 +17.0 66 +27 +27 жарко 1012.3 1011.9
21 18.06 С 2 10 км ясно +21.7 +18.8 84 +27 +27 душно 1012.5 1012.1
00 19.06 С 3 10 км ясно +21.7 +18.3 81 +26 +26 душно 1012.2 1011.8
03 19.06 СВ 1 10 км ясно +24.4 +20.4 78 +30 +31 очень
душно
1012.1 1011.7 +20.6
06 19.06 СВ 4 10 км ясно +27.2 +19.9 64 +33 +40 очень
душно
1012.6 1012.3
09 19.06 СВ 4 10 км ясно +30.4 +14.2 37 +32 +45 жарко 1012.7 1012.4
12 19.06 СВ 5 10 км ясно +31.9 +12.5 31 +33 +40 жарко 1011.5 1011.2

 

Местоположение метеостанции Должанка (Краснодарский край, Россия): широта 46.68 долгота 37.73 высота над уровнем моря 3 м.

В архиве по умолчанию представлена погода в Должанке за последнюю неделю. Архивные данные за месяц целиком и за предыдущие месяцы, начиная с января 2011 года, Вы можете получить, выбрав интересующий диапазон дат из раскрывающегося списка и нажав кнопку "Ввод!".


*Определитесь, кто Вы:
робот инопланетянин человек

Внимание! Время в таблицах - всемирное. Для получения местного времени необходимо прибавить поправку, которая равна 3 ч.

Смотрите также архив погоды в соседних городах и на ближайших метеорологических станциях:

Погода в Мариуполе (Донецкая область, Украина) (43 км)
Погода в Ейске (Краснодарский край, Россия) (43 км)
Погода в Бердянске (Запорожская область, Украина) (73 км)
Погода в Приморско-Ахтарске (Краснодарский край, Россия) (79 км)
Погода в Маргаритово (Ростовская область, Россия) (91 км)
Погода в Староминская (Краснодарский край, Россия) (100 км)
Погода в Таганроге (Ростовская область, Россия) (106 км)
Погода в Волновахе (Донецкая область, Украина) (108 км)
Погода в Каневской (Краснодарский край, Россия) (117 км)
Погода в Кирилловке (Запорожская область, Украина) (128 км)

Пояснения к столбцам:

Ветер - указаны скорость ветра в м/с - средняя за 10 мин, порывы в срок и между сроками (в фигурных скобках) и направление, откуда дует ветер: С - северный, СВ - северо-восточный, В - восточный, ЮВ - юго-восточный, Ю - южный, ЮЗ - юго-западный, З - западный, СЗ - северо-западный.
Видимость - горизонтальная дальность видимости в метрах или километрах. При видимости от 1 до 10 км при отсутствии осадков обычно наблюдается дымка, при ухудшении видимости до 1 км и менее - туман. В сухую погоду видимость может ухудшаться дымом, пылью или мглою.
Явления - указаны атмосферные явления, наблюдавшиеся в срок или в последний час перед сроком; фигурными скобками обозначены явления, наблюдавшиеся между сроками (за 1-3 часа до срока); квадратными скобками обозначены град или гололедные отложения с указанием их диаметра в мм.
Облачность - указаны через наклонную черту общая и нижняя облачность в баллах и высота нижней границы облаков в метрах; квадратными скобками обозначены формы облаков: Ci - перистые, Cs - перисто-слоистые, Cc - перисто-кучевые, Ac - высококучевые, As - высокослоистые, Sc - слоисто-кучевые, Ns - слоисто-дождевые, Cu - кучевые, Cb - кучево-дождевые. Подробнее классификацию облаков см. в Атласе облаков (PDF).
T - Температура воздуха - температура, измеренная на высоте 2 м над землей.
Td - Температура точки росы - температура, при понижении до которой содержащийся в воздухе водяной пар достигнет насыщения.
f - Относительная влажность воздуха - влажноcть воздуха, измеренная на высоте 2 м над землей.
Te - Эффективная температура - температура, которую ощущает одетый по сезону человек в тени. Характеристика душности погоды. При расчете учитывается влияние влажности воздуха и скорости ветра на теплоощущения человека.
Tes - Эффективная температура на солнце - температура, которую ощущает человек, с поправкой на солнечный нагрев. Характеристика знойности погоды. Зависит от высоты солнца над горизонтом, облачности и скорости ветра. Ночью, в пасмурную погоду, а также при ветре 12 м/с и более поправка равна нулю.
P - Атмосферное давление - приведенное к уровню моря атмосферное давление.
Po - Атмосферное давление - измеренное на уровне метеостанции атмосферное давление.
Tmin - Минимальная температура - минимум температуры воздуха на высоте 2 м над землей.
Tmax - Максимальная температура - максимум температуры воздуха на высоте 2 м над землей.
R - Количество осадков - Количество выпавших осадков за период времени, мм. При наведении курсора мыши на число - период времени, за который выпало указанное количество осадков.
R24 - Количество осадков - Количество выпавших осадков за 24 часа, мм.
S - Снежный покров - Высота снежного покрова, см. При наведении курсора мыши на число - состояние снежного покрова и степень покрытия местности в баллах.